Location: Navajo
(48.7922°N, 105.0603°W)
Time: 06:00:31
(UTC+00:00)

KKS-1 - Pass Details

Date: 09 July 2022
Orbit: 634 x 649 km, 98.2° (Epoch: 18 August)

Event Time Altitude Azimuth Distance (km) Brightness Sun altitude
Rises 05:25:37 0° 12° (NNE) 2,976 ? -15.4°
Reaches altitude 10° 05:27:51 10° 10° (N) 2,059 ? -15.6°
Maximum altitude 05:32:18 70° 287° (WNW) 692 ? -15.9°
Enters shadow 05:35:45 16° 206° (SSW) 1,649 ? -16.1°
